Theta_e
313 315 314 309 310 312 315 318 320 324 325 326 325 325 321 320 320 319 320 323 329 330 332 334 336 337 337 337 337 335 332 327 331 333 335 335 336 337 334 331 330 329 328 327
311 313 313 311 310 312 312 313 317 318 319 326 326 324 321 320 320 319 319 319 320 328 330 332 334 336 336 337 338 338 337 334 328 330 332 332 332 335 329 330 330 331 331 329
310 312 312 313 311 312 312 312 314 316 313 312 312 316 320 320 320 320 319 319 319 319 326 330 333 334 335 336 337 337 338 338 336 334 334 334 335 333 332 331 331 331 331 331
309 310 312 312 313 311 312 311 312 315 316 319 314 323 318 318 319 321 321 316 318 318 319 322 327 330 334 335 335 335 336 337 337 337 337 336 336 334 331 331 332 332 331 331
312 310 311 314 313 311 311 312 311 315 315 315 314 317 316 316 318 318 319 315 315 316 317 318 318 319 323 325 328 334 335 335 335 336 337 337 337 335 334 334 333 332 332 331
305 305 308 312 312 309 310 310 310 312 313 315 314 315 317 316 317 315 318 316 312 312 312 313 313 315 317 318 318 320 321 331 334 334 335 336 336 335 335 334 333 332 332 332
307 307 308 307 312 310 308 309 311 314 315 314 312 316 316 315 310 308 308 309 309 309 309 309 309 309 308 309 310 311 311 312 314 320 329 333 334 334 334 333 333 334 335 335
309 308 309 309 312 311 308 309 311 310 313 311 311 314 311 313 313 309 308 308 308 308 309 308 308 308 308 308 307 307 306 307 307 307 309 311 318 331 330 329 331 332 334 335
308 312 309 311 310 310 308 310 309 309 306 310 309 310 309 308 307 307 308 310 310 310 310 311 310 310 309 309 308 308 308 308 307 307 307 307 309 313 323 328 330 331 331 330
303 308 308 310 311 311 309 309 310 308 304 306 309 309 308 306 307 308 309 309 310 309 309 308 308 308 308 309 311 312 312 313 312 310 309 308 307 309 313 318 320 324 329 328
304 307 309 308 313 311 309 309 309 307 307 309 308 306 307 307 307 308 308 309 308 308 308 308 308 307 307 307 307 308 310 311 312 313 314 313 313 313 312 311 312 314 317 320
303 305 308 309 307 308 309 309 309 308 306 306 307 306 305 308 308 308 308 308 308 308 308 308 308 307 307 307 307 307 307 308 310 310 310 310 311 313 314 315 315 315 316 317
303 305 305 310 309 309 312 311 309 308 306 307 306 306 305 307 305 308 308 307 308 308 308 307 307 306 306 306 306 306 307 307 308 308 308 308 308 309 309 309 310 311 312 313
302 304 304 304 305 305 310 311 310 308 306 310 308 306 305 305 306 306 307 307 307 307 306 306 304 303 303 303 304 304 305 306 307 307 307 307 307 307 307 307 307 308 308 308
302 303 303 303 303 304 305 307 309 311 309 307 309 306 305 306 304 306 306 306 305 304 303 302 301 302 302 302 302 302 302 303 303 304 305 306 307 307 307 308 307 307 306 306
301 302 302 301 302 303 305 305 306 308 308 308 309 309 306 305 304 304 304 304 302 302 301 301 300 301 301 301 301 301 302 302 302 303 303 303 304 304 304 305 305 306 307 307
300 301 299 300 299 301 302 301 304 306 307 308 309 307 306 303 303 303 303 301 300 300 299 299 298 298 298 299 299 299 300 300 300 300 302 302 303 303 303 304 304 304 305 305
298 298 297 296 293 297 299 298 299 301 304 304 303 302 301 302 302 303 301 300 299 299 298 298 298 298 297 297 298 298 298 298 298 298 298 298 299 301 302 302 302 303 303 303
297 298 292 294 293 297 298 297 298 299 300 301 302 300 301 301 300 301 300 299 299 298 298 298 298 297 297 297 297 297 298 297 297 297 297 297 297 298 298 299 301 302 302 302
296 298 294 291 293 292 296 297 298 299 297 300 300 300 299 299 298 298 300 298 298 297 297 297 297 297 297 297 297 297 297 297 297 296 296 296 296 296 297 297 297 298 300 301
288 291 289 289 289 293 298 297 298 293 297 299 300 299 299 297 298 300 298 297 297 297 297 297 297 297 296 296 296 296 296 296 296 296 295 295 295 295 295 296 296 296 297 299
291 288 287 288 287 291 297 296 296 299 298 298 298 298 297 297 297 297 297 297 297 297 296 296 297 296 296 295 295 295 295 295 295 295 294 294 294 294 294 294 295 295 296 296
292 295 294 295 294 296 297 297 297 299 298 297 298 298 297 296 296 296 296 296 296 296 296 296 295 294 293 292 292 292 292 292 292 292 292 292 292 292 292 293 293 293 294 294
293 295 292 293 294 295 297 296 296 297 298 298 296 296 296 296 296 296 296 296 296 296 295 292 290 290 290 289 289 289 289 289 290 290 290 290 290 291 291 292 292 292 292 292
295 293 291 292 294 295 296 296 296 296 297 297 296 296 296 296 295 295 295 295 295 293 290 289 289 289 288 288 288 288 288 288 288 289 289 289 289 290 290 290 291 291 291 290
294 294 294 294 295 295 296 296 296 296 296 296 296 295 295 296 295 295 295 295 292 289 288 288 289 288 288 287 287 286 286 287 287 288 288 288 288 288 288 288 288 289 288 288
Wind_Speed
18 9 16 17 17 11 8 11 15 10 13 13 19 15 13 20 16 7 11 18 16 21 20 21 21 21 19 23 23 25 25 22 25 30 29 27 25 25 25 23 23 23 23 22
9 21 15 12 14 15 18 15 9 5 5 13 10 15 12 14 25 14 16 18 18 12 19 19 22 24 24 24 25 24 24 22 23 27 29 28 27 25 25 25 25 26 26 25
20 10 19 18 16 17 18 19 9 7 5 4 3 8 11 12 26 31 25 17 14 12 12 10 19 21 23 25 25 26 27 26 25 25 25 27 27 28 29 29 29 28 27 27
16 24 19 21 19 17 19 12 7 9 8 3 3 6 10 16 17 20 32 20 19 20 15 17 12 18 21 20 21 25 25 26 26 26 27 29 32 32 30 29 30 33 31 30
3 13 18 18 21 15 9 7 12 7 5 5 6 2 5 7 12 17 26 22 20 23 24 18 17 16 11 12 20 23 23 22 26 28 30 31 33 34 31 29 30 29 30 31
10 16 7 20 16 11 4 5 8 6 4 4 10 7 4 7 13 7 18 19 10 5 7 9 8 11 15 19 18 21 23 27 27 29 28 32 35 36 35 34 34 32 32 32
6 8 9 6 21 13 12 10 3 4 5 7 18 8 10 5 6 9 10 17 14 7 2 3 6 7 10 12 16 20 22 24 26 28 30 31 34 36 37 36 35 31 31 35
4 7 11 7 11 13 19 17 5 6 7 4 13 9 6 21 19 10 13 14 12 8 3 2 2 2 2 4 6 10 12 13 16 20 27 29 32 30 33 35 34 30 31 34
3 6 4 11 11 20 17 19 10 4 1 4 6 6 2 7 7 15 19 19 18 15 15 16 15 13 11 8 6 5 5 8 12 15 17 22 25 30 33 30 30 28 28 29
5 6 2 7 12 20 19 19 14 1 4 3 6 5 4 8 11 12 14 19 21 23 22 22 23 23 23 22 19 15 12 10 8 7 9 12 16 21 27 31 33 29 26 28
3 4 2 5 5 14 12 15 10 5 4 4 4 3 4 10 14 15 14 18 20 21 20 18 19 18 19 19 17 17 16 15 12 12 11 8 6 8 12 17 22 24 27 29
1 4 4 6 3 10 18 15 25 9 6 2 3 2 10 16 17 21 17 16 18 18 16 15 15 13 14 14 14 14 13 12 12 11 11 10 9 8 8 9 11 13 15 17
2 2 4 0 3 3 4 8 17 4 3 5 4 3 2 15 13 19 18 16 14 14 14 9 11 11 12 12 12 12 10 9 7 6 7 8 8 7 7 7 8 10 13 15
2 0 2 1 3 3 5 9 6 11 3 3 3 10 7 8 8 13 14 13 11 13 10 7 10 11 11 12 11 11 11 10 10 8 8 8 8 10 11 11 13 14 15 16
3 1 1 1 1 1 2 7 4 3 4 5 3 12 9 8 8 8 13 13 16 12 9 10 10 11 12 12 12 12 13 13 13 13 14 15 16 17 18 18 19 20 20 20
7 1 2 1 1 3 2 5 7 5 4 5 4 7 10 14 8 13 15 16 15 12 8 9 10 11 13 13 14 14 15 16 16 16 16 17 18 19 21 23 25 26 27 27
6 4 3 2 5 4 3 2 2 2 2 2 2 10 10 5 8 13 17 15 13 9 6 6 8 10 12 13 13 14 15 16 16 17 17 19 20 21 22 23 24 26 28 30
4 5 3 2 4 2 4 1 3 2 5 4 6 6 8 10 14 13 12 11 8 6 7 9 11 13 15 16 17 17 17 17 17 17 17 18 20 22 23 25 26 28 29 30
4 2 2 2 1 3 3 3 2 4 3 5 3 6 10 10 10 11 6 5 4 5 7 10 13 15 17 18 20 21 22 22 22 21 22 22 23 24 25 27 28 29 32 33
3 3 2 2 1 3 2 3 2 2 1 2 10 8 12 9 3 4 7 1 2 6 9 13 15 17 20 22 23 25 25 26 26 26 26 26 26 27 27 27 27 28 30 33
2 1 3 2 1 6 1 7 1 5 5 9 17 15 10 4 5 10 3 3 6 9 12 15 17 19 21 22 24 25 25 26 28 29 29 29 29 29 29 30 29 29 29 30
5 5 4 2 3 7 9 4 6 5 14 15 15 12 8 4 3 6 7 9 11 12 14 16 18 19 20 23 25 26 27 29 31 32 33 33 33 33 32 32 32 31 31 32
3 5 3 6 5 3 13 5 9 7 15 14 12 9 8 10 12 13 14 14 13 15 16 18 19 19 19 20 23 25 26 29 30 32 33 35 35 35 33 33 32 31 31 32
4 7 2 3 6 14 23 13 13 11 13 14 8 8 9 10 11 14 17 17 16 16 16 15 16 18 20 22 24 25 28 30 31 32 33 34 35 35 34 34 33 33 31 31
5 5 5 5 12 13 20 17 21 21 18 17 16 11 10 12 12 11 15 16 15 15 13 15 18 21 23 24 25 25 27 30 31 31 32 32 32 32 33 33 33 33 32 30
14 10 7 6 9 11 3 4 18 28 27 25 21 19 22 19 17 17 17 15 13 11 13 16 19 23 24 26 26 26 27 28 30 31 31 31 31 31 32 33 34 30 31 30
Wind_Direction
207 211 211 209 222 248 243 211 212 199 216 189 220 240 252 289 293 264 250 262 237 211 213 208 208 212 215 209 217 215 225 224 216 216 218 220 221 224 231 236 238 242 243 242
249 223 220 227 228 223 242 254 225 175 44 179 209 242 257 270 281 260 245 250 268 239 213 209 205 204 213 209 220 217 226 231 222 221 223 228 227 231 241 240 241 242 246 247
223 242 209 227 225 226 228 234 237 176 122 23 358 254 223 239 255 270 282 256 257 275 246 216 196 206 216 219 215 222 219 229 234 231 229 232 240 240 242 240 243 244 247 249
239 237 250 214 227 221 232 223 245 144 139 179 113 262 220 229 225 238 261 249 242 251 249 227 226 221 214 220 230 230 227 224 228 239 234 234 236 247 251 250 249 251 252 252
214 211 231 228 222 220 247 196 220 149 137 124 170 219 235 263 224 222 228 236 228 236 245 254 244 232 204 214 225 227 224 230 232 230 238 239 241 252 258 256 260 260 258 255
259 293 297 237 222 205 221 271 180 165 100 253 192 185 203 197 217 217 218 190 168 204 233 234 225 210 210 212 216 221 230 227 225 228 234 240 247 252 255 256 256 260 261 260
239 248 242 291 204 189 200 194 136 166 186 229 173 187 235 250 73 90 77 80 91 87 81 317 258 253 252 247 239 243 246 244 238 236 235 237 245 253 258 261 262 259 255 257
249 222 190 217 216 197 202 198 167 172 193 162 154 217 245 227 254 108 97 95 92 95 132 159 324 321 278 275 271 256 257 257 255 249 245 241 239 245 254 257 258 258 252 256
196 236 159 192 205 210 195 213 212 134 81 121 187 238 208 146 118 103 103 98 95 93 86 79 79 72 58 42 25 357 309 275 270 271 266 257 248 240 241 244 246 248 248 252
299 284 340 217 213 233 192 199 214 255 134 197 192 193 205 164 136 121 113 111 105 98 89 83 77 72 67 61 53 45 37 26 3 325 293 270 265 260 252 251 253 250 248 248
283 259 137 2 218 192 196 201 206 186 198 163 133 227 305 148 137 123 112 114 109 100 89 77 70 62 59 55 51 48 46 42 35 28 20 3 327 290 272 264 262 262 261 258
340 304 291 217 210 284 223 208 196 190 228 231 128 353 340 112 114 112 115 114 102 87 78 69 67 60 51 44 37 36 36 41 41 38 34 26 12 354 334 309 288 276 267 262
335 52 328 290 80 255 206 262 193 192 151 189 129 177 58 106 89 94 96 118 98 86 84 78 58 41 31 27 23 20 15 19 19 30 31 23 12 360 341 321 307 298 292 286
313 78 191 81 318 329 325 225 297 201 113 142 155 135 141 123 119 103 94 105 93 88 84 58 48 39 33 26 16 7 359 354 341 335 332 335 330 324 319 315 309 303 298 293
27 132 78 33 83 233 272 -0 60 264 183 136 152 150 150 104 98 103 101 101 96 86 68 57 52 43 30 21 15 7 360 352 343 334 326 318 313 308 305 302 299 297 297 296
338 59 15 91 1 270 329 74 17 58 28 71 79 95 94 113 115 94 90 100 93 88 72 54 41 31 25 20 12 0 353 348 345 344 337 326 315 309 306 302 297 294 293 292
349 341 347 72 345 307 30 316 143 118 212 132 170 131 151 127 107 98 112 112 108 102 87 59 34 18 10 5 2 357 353 347 341 336 331 324 319 317 314 308 303 300 298 295
314 341 17 317 7 43 244 277 23 297 212 209 104 113 99 107 100 109 117 113 98 74 41 17 5 357 350 346 344 341 338 335 333 329 325 321 315 312 308 305 305 304 300 296
291 313 39 78 305 276 91 153 167 167 244 205 178 123 114 96 106 102 124 87 42 13 359 350 343 338 334 331 330 330 331 330 328 327 327 326 324 321 318 315 311 306 302 301
327 327 89 12 84 203 209 72 345 302 332 2 171 134 124 139 158 180 166 50 354 335 330 328 326 325 324 323 322 323 324 324 324 325 326 325 323 320 317 314 312 310 307 305
115 13 172 214 282 297 207 158 330 97 202 99 117 120 141 120 106 156 215 263 300 310 312 315 317 319 321 319 318 318 319 317 318 318 319 320 319 317 316 314 312 309 305 302
175 153 188 183 115 266 189 114 169 150 140 134 132 134 136 146 250 274 259 265 282 294 299 303 305 308 309 308 309 311 313 312 312 312 314 314 314 315 314 313 312 310 307 304
272 193 197 185 214 211 184 165 208 177 160 168 168 188 237 260 266 268 252 253 270 283 291 295 300 303 306 308 307 307 306 303 302 305 306 308 309 310 312 312 311 310 309 307
252 252 200 57 269 253 260 248 241 226 189 183 200 233 260 266 267 257 249 258 274 281 287 294 301 305 307 307 306 306 304 302 302 303 304 305 307 308 310 310 311 312 312 310
211 131 193 259 262 272 261 248 252 243 233 236 257 260 270 277 272 263 260 266 273 284 293 304 309 311 314 313 311 309 305 302 303 303 304 305 306 310 311 310 312 311 310 308
199 207 198 224 212 200 244 278 243 243 242 248 251 251 273 268 268 265 268 271 276 284 299 308 313 315 316 313 311 311 305 301 301 302 303 303 307 310 311 312 312 311 311 308